Location: Oroua River
(40.4333°S, 175.4333°E)
Time: 15:03:26
(UTC+00:00)

Thor Agena Rocket - Pass Details

Date: 03 February 2023
Orbit: 758 x 807 km, 99.0° (Epoch: 22 March)

Event Time Altitude Azimuth Distance (km) Brightness Sun altitude
Exits shadow 13:25:17 48° 196° (SSW) 1,031 4.3 -31.7°
Drops below altitude 10° 13:28:58 10° 194° (SSW) 2,355 6.7 -31.6°
Sets 13:31:17 0° 193° (SSW) 3,283 7.6 -31.4°
